Terminal Aerodrome Forecast
Issued by NWS Green Bay, WI

Home | Current Version | Previous Version | Graphics & Text | Print | Product List | Glossary On
Versions: 1 2 3 4 5 6 7 8 9 10 11 12 13 14 15 16 17 18 19 20 21 22 23 24 25
000
FTUS43 KGRB 201100
TAFGRB
TAF
KGRB 201120Z 2012/2112 18004KT P6SM SCT090
      TEMPO 2012/2014 4SM BR
     FM201600 21010G18KT P6SM SCT050 SCT100
     FM202300 19007KT P6SM SCT100=

USA.gov is the U.S. government's official web portal to all federal, state and local government web resources and services.